TimeCST,TemperatureF,Dew PointF,Humidity,Sea Level PressureIn,VisibilityMPH,Wind Direction,Wind SpeedMPH,Gust SpeedMPH,PrecipitationIn,Events,Conditions,WindDirDegrees,DateUTC
12:00 AM,68,56,58,29.80,12,East,12.7,,,,Scattered Clouds,100,2014-01-04 06:00:00
12:00 AM,68.0,57.2,68,29.97,-9999.0,East,12.7,-,N/A,,Clear,100,2014-01-04 06:00:00
1:00 AM,68.0,55.4,64,29.94,-9999.0,East,10.4,-,N/A,,Clear,90,2014-01-04 07:00:00
2:00 AM,68.0,55.4,64,29.93,-9999.0,ESE,6.9,-,N/A,,Clear,120,2014-01-04 08:00:00
3:00 AM,67,55,57,29.76,12,ESE,10.4,,,,,120,2014-01-04 09:00:00
3:00 AM,68.0,55.4,64,29.92,-9999.0,ESE,10.4,-,N/A,,Clear,120,2014-01-04 09:00:00
4:00 AM,66.2,55.4,68,29.92,-9999.0,ESE,11.5,-,N/A,,Clear,110,2014-01-04 10:00:00
5:00 AM,66.2,55.4,68,29.95,-9999.0,ESE,9.2,-,N/A,,Clear,110,2014-01-04 11:00:00
6:00 AM,66,55,59,29.85,12,ESE,4.6,,,,Scattered Clouds,110,2014-01-04 12:00:00
6:00 AM,66.2,55.4,68,29.97,-9999.0,ESE,4.6,-,N/A,,Clear,110,2014-01-04 12:00:00
7:00 AM,69.8,53.6,56,29.98,-9999.0,East,6.9,-,N/A,,Clear,100,2014-01-04 13:00:00
8:00 AM,73.4,55.4,53,29.99,-9999.0,ESE,13.8,-,N/A,,Clear,110,2014-01-04 14:00:00
9:00 AM,77,54,34,29.85,12,ESE,12.7,,,,,110,2014-01-04 15:00:00
9:00 AM,77.0,53.6,44,30.00,-9999.0,ESE,12.7,-,N/A,,Clear,110,2014-01-04 15:00:00
10:00 AM,78.8,66.2,65,29.99,-9999.0,ESE,16.1,-,N/A,,Clear,110,2014-01-04 16:00:00
11:00 AM,82.4,55.4,39,29.97,-9999.0,ESE,11.5,-,N/A,,Clear,120,2014-01-04 17:00:00
12:00 PM,84,54,26,29.78,12,ESE,10.4,,,,,120,2014-01-04 18:00:00
12:00 PM,84.2,53.6,35,29.94,-9999.0,ESE,10.4,-,N/A,,Clear,120,2014-01-04 18:00:00
1:00 PM,84.2,51.8,33,29.91,6.2,ESE,13.8,-,N/A,,Partly Cloudy,120,2014-01-04 19:00:00
2:00 PM,84.2,51.8,33,29.89,6.2,SE,9.2,-,N/A,,Partly Cloudy,130,2014-01-04 20:00:00
3:00 PM,81,66,51,29.74,12,SE,8.1,,,,Partly Cloudy,140,2014-01-04 21:00:00
3:00 PM,80.6,66.2,61,29.89,6.2,SE,8.1,-,N/A,,Scattered Clouds,140,2014-01-04 21:00:00
4:00 PM,77.0,64.4,65,29.89,6.2,SW,9.2,-,N/A,,Scattered Clouds,220,2014-01-04 22:00:00
5:00 PM,80.6,57.2,45,29.90,6.2,South,3.5,-,N/A,,Partly Cloudy,180,2014-01-04 23:00:00
6:00 PM,73,65,71,29.80,12,West,8.1,,,,Scattered Clouds,260,2014-01-05 00:00:00
6:00 PM,73.4,66.2,78,29.92,6.2,West,8.1,-,N/A,,Partly Cloudy,260,2014-01-05 00:00:00
7:00 PM,69.8,66.2,88,29.95,-9999.0,ESE,2.3,-,N/A,,Clear,110,2014-01-05 01:00:00
8:00 PM,69.8,60.8,73,29.97,-9999.0,East,3.5,-,N/A,,Clear,80,2014-01-05 02:00:00
9:00 PM,69,61,69,29.81,12,East,6.9,,,,,90,2014-01-05 03:00:00
9:00 PM,69.8,60.8,73,29.98,-9999.0,East,6.9,-,N/A,,Clear,90,2014-01-05 03:00:00
10:00 PM,69.8,60.8,73,29.98,6.2,ENE,8.1,-,N/A,,Partly Cloudy,60,2014-01-05 04:00:00
11:00 PM,69.8,60.8,73,29.96,6.2,East,10.4,-,N/A,,Partly Cloudy,100,2014-01-05 05:00:00